Ephrata, WA
on Tuesday, January 29, 2013

Tuesday
Previous Day Next Day
Daily Summary
 ActualAverageRecord
Temperature
Mean Temperature °F 31°F  
Max Temperature 41°F 38°F 55°F (1953)
Min Temperature 25°F 24°F -22°F (1950)
Degree Days
Heating Degree Days 32 34  
Month to date heating degree days 1119 1054  
Since 1 July heating degree days 3374 3640  
Cooling Degree Days 0 0  
Month to date cooling degree days 0 0  
Year to date cooling degree days 0 0  
Moisture
Dew Point 26°F   
Average Humidity 76    
Maximum Humidity 92    
Minimum Humidity 59    
Precipitation
Precipitation 0.00 in 0.02 in 0.42 in (1958)
Month to date precipitation 0.18 0.86  
Year to date precipitation 0.18 0.86  
Wind
Wind Speed 5 mph   
Max Wind Speed 24 mph   
Max Gust Speed 28 mph   
Visibility 10 miles   
Events     

Key: T is trace of precipitation, MM is missing value
Source: NWS Daily Summary
Time(PST)TemperatureDew PointHumidity Pressure Visibility Wind DirectionWind SpeedGust SpeedPrecipitationEvents Conditions
12:53 AM 27.0°F 25.0°F 92% 29.93 in 10.0 miles North 3.5 mph - N/A   Clear
1:53 AM 28.0°F 25.0°F 88% 29.95 in 10.0 miles NNE 3.5 mph - N/A   Clear
3:53 AM 28.0°F 25.0°F 88% 30.00 in 10.0 miles North 6.9 mph - N/A   Clear
4:53 AM 27.0°F 24.1°F 89% 30.02 in 10.0 miles North 3.5 mph - N/A   Clear
5:53 AM 27.0°F 24.1°F 89% 30.06 in 10.0 miles NNE 11.5 mph - N/A   Clear
6:53 AM 27.0°F 24.1°F 89% 30.09 in 10.0 miles North 10.4 mph - N/A   Clear
7:53 AM 26.1°F 21.9°F 84% 30.14 in 10.0 miles NNW 8.1 mph - N/A   Clear
8:53 AM 30.0°F 23.0°F 75% 30.16 in 10.0 miles NW 8.1 mph - N/A   Clear
9:53 AM 34.0°F 25.0°F 70% 30.19 in 10.0 miles NW 10.4 mph - N/A   Partly Cloudy
10:53 AM 37.0°F 25.0°F 62% 30.21 in 10.0 miles NNW 6.9 mph - N/A   Partly Cloudy
11:53 AM 39.0°F 26.1°F 60% 30.22 in 10.0 miles WNW 9.2 mph - N/A   Partly Cloudy
12:53 PM 39.9°F 28.0°F 63% 30.21 in 10.0 miles Calm Calm - N/A   Mostly Cloudy
1:53 PM 39.9°F 28.9°F 65% 30.21 in 10.0 miles SSW 5.8 mph - N/A   Overcast
2:53 PM 39.9°F 28.9°F 65% 30.22 in 10.0 miles South 3.5 mph - N/A   Scattered Clouds
3:53 PM 39.0°F 28.9°F 67% 30.21 in 10.0 miles Calm Calm - N/A   Scattered Clouds
4:53 PM 37.0°F 28.9°F 73% 30.20 in 10.0 miles South 4.6 mph - N/A   Partly Cloudy
5:53 PM 34.0°F 28.0°F 79% 30.18 in 10.0 miles South 6.9 mph - N/A   Clear
6:53 PM 33.1°F 28.0°F 82% 30.16 in 10.0 miles South 3.5 mph - N/A   Clear
7:53 PM 33.1°F 28.0°F 82% 30.15 in 10.0 miles Calm Calm - N/A   Clear
8:53 PM 32.0°F 28.0°F 85% 30.15 in 10.0 miles Calm Calm - N/A   Partly Cloudy
10:53 PM 28.9°F 26.1°F 89% 30.16 in 10.0 miles Calm Calm - N/A   Clear
11:53 PM 30.0°F 27.0°F 88% 30.15 in 10.0 miles Calm Calm - N/A   Clear
Moon Phase
Jan. 29 Feb. 03 Feb. 10 Feb. 17 Feb. 25
Sunrise:07:27 AM (PST) Moon Rise:08:13 PM (PST)1/29
Sunset:04:56 PM (PST) Moon Set:08:12 AM (PST)1/29

Copyright © 2014 The Weather Underground, Inc.